Year,Month,Day,Hour,Minute,Value (Times are PST for temperature in C)
2016,04,30,00,00,10.70
2016,04,30,00,01,10.80
2016,04,30,00,02,10.80
2016,04,30,00,03,10.80
2016,04,30,00,04,10.80
2016,04,30,00,05,10.80
2016,04,30,00,06,10.80
2016,04,30,00,07,10.80
2016,04,30,00,08,10.80
2016,04,30,00,09,10.80
2016,04,30,00,10,10.80
2016,04,30,00,11,10.80
2016,04,30,00,12,10.80
2016,04,30,00,13,10.80
2016,04,30,00,14,10.80
2016,04,30,00,15,10.80
2016,04,30,00,16,10.80
2016,04,30,00,17,10.80
2016,04,30,00,18,10.80
2016,04,30,00,19,10.80
2016,04,30,00,20,10.80
2016,04,30,00,21,10.80
2016,04,30,00,22,10.80
2016,04,30,00,23,10.80
2016,04,30,00,24,10.80
2016,04,30,00,25,10.80
2016,04,30,00,26,10.70
2016,04,30,00,27,10.70
2016,04,30,00,28,10.70
2016,04,30,00,29,10.70
2016,04,30,00,30,10.70
2016,04,30,00,31,10.70
2016,04,30,00,32,10.70
2016,04,30,00,33,10.70
2016,04,30,00,34,10.70
2016,04,30,00,35,10.70
2016,04,30,00,36,10.70
2016,04,30,00,37,10.70
2016,04,30,00,38,10.60
2016,04,30,00,39,10.60
2016,04,30,00,40,10.60
2016,04,30,00,41,10.60
2016,04,30,00,42,10.60
2016,04,30,00,43,10.50
2016,04,30,00,44,10.50
2016,04,30,00,45,10.50
2016,04,30,00,46,10.50
2016,04,30,00,47,10.50
2016,04,30,00,48,10.50
2016,04,30,00,49,10.50
2016,04,30,00,50,10.50
2016,04,30,00,51,10.40
2016,04,30,00,52,10.40
2016,04,30,00,53,10.40
2016,04,30,00,54,10.40
2016,04,30,00,55,10.40
2016,04,30,00,56,10.40
2016,04,30,00,57,10.30
2016,04,30,00,58,10.30
2016,04,30,00,59,10.30
2016,04,30,01,00,10.30
2016,04,30,01,01,10.30
2016,04,30,01,02,10.30
2016,04,30,01,03,10.30
2016,04,30,01,04,10.30
2016,04,30,01,05,10.30
2016,04,30,01,06,10.30
2016,04,30,01,07,10.30
2016,04,30,01,08,10.30
2016,04,30,01,09,10.30
2016,04,30,01,10,10.30
2016,04,30,01,11,10.30
2016,04,30,01,12,10.30
2016,04,30,01,13,10.20
2016,04,30,01,14,10.20
2016,04,30,01,15,10.20
2016,04,30,01,16,10.20
2016,04,30,01,17,10.20
2016,04,30,01,18,10.20
2016,04,30,01,19,10.20
2016,04,30,01,20,10.20
2016,04,30,01,21,10.20
2016,04,30,01,22,10.10
2016,04,30,01,23,10.10
2016,04,30,01,24,10.10
2016,04,30,01,25,10.10
2016,04,30,01,26,10.10
2016,04,30,01,27,10.10
2016,04,30,01,28,10.10
2016,04,30,01,29,10.10
2016,04,30,01,30,10.10
2016,04,30,01,31,10.10
2016,04,30,01,32,10.10
2016,04,30,01,33,10.10
2016,04,30,01,34,10.00
2016,04,30,01,35,10.00
2016,04,30,01,36,10.00
2016,04,30,01,37,10.00
2016,04,30,01,38,10.00
2016,04,30,01,39,10.00
2016,04,30,01,40,10.00
2016,04,30,01,41,9.90
2016,04,30,01,42,9.90
2016,04,30,01,43,9.90
2016,04,30,01,44,9.90
2016,04,30,01,45,9.90
2016,04,30,01,46,9.90
2016,04,30,01,47,9.90
2016,04,30,01,48,9.90
2016,04,30,01,49,9.90
2016,04,30,01,50,9.90
2016,04,30,01,51,9.90
2016,04,30,01,52,9.90
2016,04,30,01,53,9.90
2016,04,30,01,54,9.90
2016,04,30,01,55,9.90
2016,04,30,01,56,9.90
2016,04,30,01,57,9.90
2016,04,30,01,58,9.90
2016,04,30,01,59,9.80
2016,04,30,02,00,9.90
2016,04,30,02,01,9.90
2016,04,30,02,02,9.90
2016,04,30,02,03,9.90
2016,04,30,02,04,9.90
2016,04,30,02,05,9.90
2016,04,30,02,06,9.90
2016,04,30,02,07,9.80
2016,04,30,02,08,9.80
2016,04,30,02,09,9.80
2016,04,30,02,10,9.80
2016,04,30,02,11,9.80
2016,04,30,02,12,9.70
2016,04,30,02,13,9.70
2016,04,30,02,14,9.70
2016,04,30,02,15,9.70
2016,04,30,02,16,9.60
2016,04,30,02,17,9.60
2016,04,30,02,18,9.60
2016,04,30,02,19,9.60
2016,04,30,02,20,9.50
2016,04,30,02,21,9.50
2016,04,30,02,22,9.50
2016,04,30,02,23,9.40
2016,04,30,02,24,9.40
2016,04,30,02,25,9.40
2016,04,30,02,26,9.40
2016,04,30,02,27,9.40
2016,04,30,02,28,9.30
2016,04,30,02,29,9.30
2016,04,30,02,30,9.30
2016,04,30,02,31,9.30
2016,04,30,02,32,9.30
2016,04,30,02,33,9.30
2016,04,30,02,34,9.30
2016,04,30,02,35,9.30
2016,04,30,02,36,9.40
2016,04,30,02,37,9.40
2016,04,30,02,38,9.40
2016,04,30,02,39,9.30
2016,04,30,02,40,9.30
2016,04,30,02,41,9.30
2016,04,30,02,42,9.30
2016,04,30,02,43,9.30
2016,04,30,02,44,9.30
2016,04,30,02,45,9.30
2016,04,30,02,46,9.20
2016,04,30,02,47,9.20
2016,04,30,02,48,9.20
2016,04,30,02,49,9.20
2016,04,30,02,50,9.20
2016,04,30,02,51,9.20
2016,04,30,02,52,9.20
2016,04,30,02,53,9.20
2016,04,30,02,54,9.10
2016,04,30,02,55,9.10
2016,04,30,02,56,9.10
2016,04,30,02,57,9.10
2016,04,30,02,58,9.10
2016,04,30,02,59,9.00
2016,04,30,03,00,9.00
2016,04,30,03,01,9.00
2016,04,30,03,02,9.00
2016,04,30,03,03,8.90
2016,04,30,03,04,8.90
2016,04,30,03,05,8.90
2016,04,30,03,06,8.90
2016,04,30,03,07,8.90
2016,04,30,03,08,8.90
2016,04,30,03,09,8.90
2016,04,30,03,10,8.80
2016,04,30,03,11,8.80
2016,04,30,03,12,8.80
2016,04,30,03,13,8.80
2016,04,30,03,14,8.80
2016,04,30,03,15,8.80
2016,04,30,03,16,8.80
2016,04,30,03,17,8.80
2016,04,30,03,18,8.80
2016,04,30,03,19,8.80
2016,04,30,03,20,8.80
2016,04,30,03,21,8.80
2016,04,30,03,22,8.80
2016,04,30,03,23,8.80
2016,04,30,03,24,8.80
2016,04,30,03,25,8.80
2016,04,30,03,26,8.80
2016,04,30,03,27,8.80
2016,04,30,03,28,8.80
2016,04,30,03,29,8.80
2016,04,30,03,30,8.80
2016,04,30,03,31,8.80
2016,04,30,03,32,8.80
2016,04,30,03,33,8.80
2016,04,30,03,34,8.80
2016,04,30,03,35,8.80
2016,04,30,03,36,8.80
2016,04,30,03,37,8.80
2016,04,30,03,38,8.70
2016,04,30,03,39,8.80
2016,04,30,03,40,8.70
2016,04,30,03,41,8.70
2016,04,30,03,42,8.70
2016,04,30,03,43,8.70
2016,04,30,03,44,8.70
2016,04,30,03,45,8.70
2016,04,30,03,46,8.70
2016,04,30,03,47,8.70
2016,04,30,03,48,8.70
2016,04,30,03,49,8.70
2016,04,30,03,50,8.70
2016,04,30,03,51,8.70
2016,04,30,03,52,8.70
2016,04,30,03,53,8.70
2016,04,30,03,54,8.70
2016,04,30,03,55,8.70
2016,04,30,03,56,8.70
2016,04,30,03,57,8.70
2016,04,30,03,58,8.70
2016,04,30,03,59,8.70
2016,04,30,04,00,8.70
2016,04,30,04,01,8.60
2016,04,30,04,02,8.60
2016,04,30,04,03,8.60
2016,04,30,04,04,8.60
2016,04,30,04,05,8.60
2016,04,30,04,06,8.60
2016,04,30,04,07,8.60
2016,04,30,04,08,8.60
2016,04,30,04,09,8.60
2016,04,30,04,10,8.50
2016,04,30,04,11,8.50
2016,04,30,04,12,8.50
2016,04,30,04,13,8.50
2016,04,30,04,14,8.40
2016,04,30,04,15,8.40
2016,04,30,04,16,8.40
2016,04,30,04,17,8.30
2016,04,30,04,18,8.30
2016,04,30,04,19,8.30
2016,04,30,04,20,8.20
2016,04,30,04,21,8.20
2016,04,30,04,22,8.20
2016,04,30,04,23,8.20
2016,04,30,04,24,8.10
2016,04,30,04,25,8.10
2016,04,30,04,26,8.10
2016,04,30,04,27,8.10
2016,04,30,04,28,8.10
2016,04,30,04,29,8.10
2016,04,30,04,30,8.10
2016,04,30,04,31,8.00
2016,04,30,04,32,8.00
2016,04,30,04,33,8.00
2016,04,30,04,34,8.00
2016,04,30,04,35,7.90
2016,04,30,04,36,7.90
2016,04,30,04,37,7.90
2016,04,30,04,38,7.90
2016,04,30,04,39,7.90
2016,04,30,04,40,7.90
2016,04,30,04,41,7.90
2016,04,30,04,42,7.90
2016,04,30,04,43,7.90
2016,04,30,04,44,7.90
2016,04,30,04,45,7.90
2016,04,30,04,46,7.90
2016,04,30,04,47,7.90
2016,04,30,04,48,7.90
2016,04,30,04,49,7.90
2016,04,30,04,50,7.90
2016,04,30,04,51,7.90
2016,04,30,04,52,7.90
2016,04,30,04,53,7.90
2016,04,30,04,54,8.00
2016,04,30,04,55,8.00
2016,04,30,04,56,8.00
2016,04,30,04,57,8.00
2016,04,30,04,58,8.10
2016,04,30,04,59,8.10
2016,04,30,05,00,8.10
2016,04,30,05,01,8.10
2016,04,30,05,02,8.10
2016,04,30,05,03,8.10
2016,04,30,05,04,8.10
2016,04,30,05,05,8.10
2016,04,30,05,06,8.10
2016,04,30,05,07,8.10
2016,04,30,05,08,8.10
2016,04,30,05,09,8.10
2016,04,30,05,10,8.10
2016,04,30,05,11,8.10
2016,04,30,05,12,8.10
2016,04,30,05,13,8.10
2016,04,30,05,14,8.00
2016,04,30,05,15,8.00
2016,04,30,05,16,8.00
2016,04,30,05,17,8.00
2016,04,30,05,18,8.00
2016,04,30,05,19,8.00
2016,04,30,05,20,8.00
2016,04,30,05,21,8.00
2016,04,30,05,22,8.00
2016,04,30,05,23,8.10
2016,04,30,05,24,8.10
2016,04,30,05,25,8.10
2016,04,30,05,26,8.10
2016,04,30,05,27,8.10
2016,04,30,05,28,8.10
2016,04,30,05,29,8.10
2016,04,30,05,30,8.10
2016,04,30,05,31,8.10
2016,04,30,05,32,8.10
2016,04,30,05,33,8.10
2016,04,30,05,34,8.10
2016,04,30,05,35,8.10
2016,04,30,05,36,8.10
2016,04,30,05,37,8.10
2016,04,30,05,38,8.10
2016,04,30,05,39,8.10
2016,04,30,05,40,8.10
2016,04,30,05,41,8.10
2016,04,30,05,42,8.20
2016,04,30,05,43,8.20
2016,04,30,05,44,8.20
2016,04,30,05,45,8.20
2016,04,30,05,46,8.20
2016,04,30,05,47,8.20
2016,04,30,05,48,8.20
2016,04,30,05,49,8.20
2016,04,30,05,50,8.30
2016,04,30,05,51,8.20
2016,04,30,05,52,8.30
2016,04,30,05,53,8.30
2016,04,30,05,54,8.30
2016,04,30,05,55,8.30
2016,04,30,05,56,8.20
2016,04,30,05,57,8.20
2016,04,30,05,58,8.20
2016,04,30,05,59,8.20
2016,04,30,06,00,8.20
2016,04,30,06,01,8.20
2016,04,30,06,02,8.20
2016,04,30,06,03,8.20
2016,04,30,06,04,8.20
2016,04,30,06,05,8.20
2016,04,30,06,06,8.20
2016,04,30,06,07,8.20
2016,04,30,06,08,8.20
2016,04,30,06,09,8.20
2016,04,30,06,10,8.20
2016,04,30,06,11,8.20
2016,04,30,06,12,8.20
2016,04,30,06,13,8.20
2016,04,30,06,14,8.10
2016,04,30,06,15,8.20
2016,04,30,06,16,8.10
2016,04,30,06,17,8.10
2016,04,30,06,18,8.10
2016,04,30,06,19,8.10
2016,04,30,06,20,8.10
2016,04,30,06,21,8.10
2016,04,30,06,22,8.10
2016,04,30,06,23,8.10
2016,04,30,06,24,8.10
2016,04,30,06,25,8.00
2016,04,30,06,26,8.00
2016,04,30,06,27,8.00
2016,04,30,06,28,8.00
2016,04,30,06,29,8.00
2016,04,30,06,30,8.00
2016,04,30,06,31,8.00
2016,04,30,06,32,8.00
2016,04,30,06,33,8.00
2016,04,30,06,34,8.00
2016,04,30,06,35,8.00
2016,04,30,06,36,8.00
2016,04,30,06,37,8.00
2016,04,30,06,38,8.00
2016,04,30,06,39,8.10
2016,04,30,06,40,8.10
2016,04,30,06,41,8.10
2016,04,30,06,42,8.10
2016,04,30,06,43,8.10
2016,04,30,06,44,8.10
2016,04,30,06,45,8.10
2016,04,30,06,46,8.10
2016,04,30,06,47,8.10
2016,04,30,06,48,8.10
2016,04,30,06,49,8.20
2016,04,30,06,50,8.20
2016,04,30,06,51,8.20
2016,04,30,06,52,8.20
2016,04,30,06,53,8.20
2016,04,30,06,54,8.20
2016,04,30,06,55,8.20
2016,04,30,06,56,8.20
2016,04,30,06,57,8.20
2016,04,30,06,58,8.30
2016,04,30,06,59,8.30
2016,04,30,07,00,8.30
2016,04,30,07,01,8.30
2016,04,30,07,02,8.40
2016,04,30,07,03,8.40
2016,04,30,07,04,8.40
2016,04,30,07,05,8.50
2016,04,30,07,06,8.50
2016,04,30,07,07,8.50
2016,04,30,07,08,8.60
2016,04,30,07,09,8.60
2016,04,30,07,10,8.60
2016,04,30,07,11,8.60
2016,04,30,07,12,8.70
2016,04,30,07,13,8.70
2016,04,30,07,14,8.70
2016,04,30,07,15,8.70
2016,04,30,07,16,8.70
2016,04,30,07,17,8.80
2016,04,30,07,18,8.80
2016,04,30,07,19,8.80
2016,04,30,07,20,8.80
2016,04,30,07,21,8.90
2016,04,30,07,22,8.90
2016,04,30,07,23,8.90
2016,04,30,07,24,8.90
2016,04,30,07,25,9.00
2016,04,30,07,26,9.00
2016,04,30,07,27,9.00
2016,04,30,07,28,9.10
2016,04,30,07,29,9.10
2016,04,30,07,30,9.10
2016,04,30,07,31,9.10
2016,04,30,07,32,9.10
2016,04,30,07,33,9.10
2016,04,30,07,34,9.20
2016,04,30,07,35,9.20
2016,04,30,07,36,9.20
2016,04,30,07,37,9.20
2016,04,30,07,38,9.20
2016,04,30,07,39,9.20
2016,04,30,07,40,9.20
2016,04,30,07,41,9.20
2016,04,30,07,42,9.30
2016,04,30,07,43,9.30
2016,04,30,07,44,9.30
2016,04,30,07,45,9.30
2016,04,30,07,46,9.30
2016,04,30,07,47,9.40
2016,04,30,07,48,9.40
2016,04,30,07,49,9.40
2016,04,30,07,50,9.40
2016,04,30,07,51,9.50
2016,04,30,07,52,9.60
2016,04,30,07,53,9.60
2016,04,30,07,54,9.60
2016,04,30,07,55,9.70
2016,04,30,07,56,9.70
2016,04,30,07,57,9.70
2016,04,30,07,58,9.70
2016,04,30,07,59,9.70
2016,04,30,08,00,9.70
2016,04,30,08,01,9.80
2016,04,30,08,02,9.80
2016,04,30,08,03,9.90
2016,04,30,08,04,9.90
2016,04,30,08,05,9.90
2016,04,30,08,06,9.90
2016,04,30,08,07,9.90
2016,04,30,08,08,9.90
2016,04,30,08,09,9.90
2016,04,30,08,10,9.90
2016,04,30,08,11,9.80
2016,04,30,08,12,9.80
2016,04,30,08,13,9.80
2016,04,30,08,14,9.80
2016,04,30,08,15,9.80
2016,04,30,08,16,9.80
2016,04,30,08,17,9.90
2016,04,30,08,18,9.80
2016,04,30,08,19,9.80
2016,04,30,08,20,9.80
2016,04,30,08,21,9.80
2016,04,30,08,22,9.90
2016,04,30,08,23,9.90
2016,04,30,08,24,9.90
2016,04,30,08,25,9.90
2016,04,30,08,26,9.90
2016,04,30,08,27,9.90
2016,04,30,08,28,9.90
2016,04,30,08,29,9.90
2016,04,30,08,30,9.90
2016,04,30,08,31,9.90
2016,04,30,08,32,10.00
2016,04,30,08,33,10.00
2016,04,30,08,34,10.10
2016,04,30,08,35,10.20
2016,04,30,08,36,10.20
2016,04,30,08,37,10.30
2016,04,30,08,38,10.30
2016,04,30,08,39,10.40
2016,04,30,08,40,10.40
2016,04,30,08,41,10.50
2016,04,30,08,42,10.50
2016,04,30,08,43,10.50
2016,04,30,08,44,10.60
2016,04,30,08,45,10.60
2016,04,30,08,46,10.60
2016,04,30,08,47,10.60
2016,04,30,08,48,10.60
2016,04,30,08,49,10.70
2016,04,30,08,50,10.70
2016,04,30,08,51,10.80
2016,04,30,08,52,10.80
2016,04,30,08,53,10.80
2016,04,30,08,54,10.90
2016,04,30,08,55,11.00
2016,04,30,08,56,11.00
2016,04,30,08,57,11.00
2016,04,30,08,58,11.10
2016,04,30,08,59,11.10
2016,04,30,09,00,11.10
2016,04,30,09,01,11.20
2016,04,30,09,02,11.20
2016,04,30,09,03,11.20
2016,04,30,09,04,11.30
2016,04,30,09,05,11.30
2016,04,30,09,06,11.30
2016,04,30,09,07,11.30
2016,04,30,09,08,11.30
2016,04,30,09,09,11.20
2016,04,30,09,10,11.20
2016,04,30,09,11,11.20
2016,04,30,09,12,11.20
2016,04,30,09,13,11.20
2016,04,30,09,14,11.20
2016,04,30,09,15,11.20
2016,04,30,09,16,11.20
2016,04,30,09,17,11.10
2016,04,30,09,18,11.00
2016,04,30,09,19,10.90
2016,04,30,09,20,10.80
2016,04,30,09,21,10.80
2016,04,30,09,22,10.70
2016,04,30,09,23,10.70
2016,04,30,09,24,10.60
2016,04,30,09,25,10.60
2016,04,30,09,26,10.60
2016,04,30,09,27,10.60
2016,04,30,09,28,10.60
2016,04,30,09,29,10.70
2016,04,30,09,30,10.80
2016,04,30,09,31,10.80
2016,04,30,09,32,10.90
2016,04,30,09,33,10.90
2016,04,30,09,34,10.90
2016,04,30,09,35,10.90
2016,04,30,09,36,10.90
2016,04,30,09,37,10.90
2016,04,30,09,38,11.00
2016,04,30,09,39,11.00
2016,04,30,09,40,11.10
2016,04,30,09,41,11.00
2016,04,30,09,42,11.00
2016,04,30,09,43,11.00
2016,04,30,09,44,11.10
2016,04,30,09,45,11.10
2016,04,30,09,46,11.10
2016,04,30,09,47,11.10
2016,04,30,09,48,11.00
2016,04,30,09,49,10.90
2016,04,30,09,50,10.90
2016,04,30,09,51,10.90
2016,04,30,09,52,10.80
2016,04,30,09,53,10.80
2016,04,30,09,54,10.80
2016,04,30,09,55,10.70
2016,04,30,09,56,10.70
2016,04,30,09,57,10.70
2016,04,30,09,58,10.80
2016,04,30,09,59,10.80
2016,04,30,10,00,10.80
2016,04,30,10,01,10.80
2016,04,30,10,02,10.80
2016,04,30,10,03,10.80
2016,04,30,10,04,10.80
2016,04,30,10,05,10.90
2016,04,30,10,06,10.90
2016,04,30,10,07,10.90
2016,04,30,10,08,10.90
2016,04,30,10,09,10.90
2016,04,30,10,10,10.90
2016,04,30,10,11,10.90
2016,04,30,10,12,10.90
2016,04,30,10,13,10.90
2016,04,30,10,14,10.80
2016,04,30,10,15,10.80
2016,04,30,10,16,10.80
2016,04,30,10,17,10.80
2016,04,30,10,18,10.80
2016,04,30,10,19,10.70
2016,04,30,10,20,10.80
2016,04,30,10,21,10.80
2016,04,30,10,22,10.80
2016,04,30,10,23,11.00
2016,04,30,10,24,11.10
2016,04,30,10,25,11.30
2016,04,30,10,26,11.40
2016,04,30,10,27,11.50
2016,04,30,10,28,11.50
2016,04,30,10,29,11.50
2016,04,30,10,30,11.40
2016,04,30,10,31,11.50
2016,04,30,10,32,11.60
2016,04,30,10,33,11.60
2016,04,30,10,34,11.50
2016,04,30,10,35,11.50
2016,04,30,10,36,11.60
2016,04,30,10,37,11.60
2016,04,30,10,38,11.70
2016,04,30,10,39,11.70
2016,04,30,10,40,11.70
2016,04,30,10,41,11.60
2016,04,30,10,42,11.60
2016,04,30,10,43,11.50
2016,04,30,10,44,11.50
2016,04,30,10,45,11.40
2016,04,30,10,46,11.40
2016,04,30,10,47,11.50
2016,04,30,10,48,11.40
2016,04,30,10,49,11.40
2016,04,30,10,50,11.40
2016,04,30,10,51,11.50
2016,04,30,10,52,11.60
2016,04,30,10,53,11.60
2016,04,30,10,54,11.60
2016,04,30,10,55,11.60
2016,04,30,10,56,11.60
2016,04,30,10,57,11.60
2016,04,30,10,58,11.60
2016,04,30,10,59,11.70
2016,04,30,11,00,11.80
2016,04,30,11,01,11.80
2016,04,30,11,02,11.80
2016,04,30,11,03,11.80
2016,04,30,11,04,11.70
2016,04,30,11,05,11.70
2016,04,30,11,06,11.70
2016,04,30,11,07,11.70
2016,04,30,11,08,11.70
2016,04,30,11,09,11.70
2016,04,30,11,10,11.80
2016,04,30,11,11,12.00
2016,04,30,11,12,12.00
2016,04,30,11,13,12.10
2016,04,30,11,14,12.20
2016,04,30,11,15,12.20
2016,04,30,11,16,12.20
2016,04,30,11,17,12.30
2016,04,30,11,18,12.30
2016,04,30,11,19,12.40
2016,04,30,11,20,12.40
2016,04,30,11,21,12.50
2016,04,30,11,22,12.70
2016,04,30,11,23,12.80
2016,04,30,11,24,12.80
2016,04,30,11,25,12.80
2016,04,30,11,26,12.80
2016,04,30,11,27,12.80
2016,04,30,11,28,12.80
2016,04,30,11,29,12.80
2016,04,30,11,30,12.80
2016,04,30,11,31,12.80
2016,04,30,11,32,12.80
2016,04,30,11,33,12.80
2016,04,30,11,34,12.80
2016,04,30,11,35,12.70
2016,04,30,11,36,12.70
2016,04,30,11,37,12.60
2016,04,30,11,38,12.60
2016,04,30,11,39,12.70
2016,04,30,11,40,12.80
2016,04,30,11,41,12.80
2016,04,30,11,42,12.80
2016,04,30,11,43,12.80
2016,04,30,11,44,12.80
2016,04,30,11,45,12.80
2016,04,30,11,46,12.80
2016,04,30,11,47,12.90
2016,04,30,11,48,12.90
2016,04,30,11,49,12.90
2016,04,30,11,50,13.00
2016,04,30,11,51,12.90
2016,04,30,11,52,12.90
2016,04,30,11,53,12.80
2016,04,30,11,54,12.80
2016,04,30,11,55,12.60
2016,04,30,11,56,12.70
2016,04,30,11,57,12.70
2016,04,30,11,58,12.80
2016,04,30,11,59,12.90
2016,04,30,12,00,13.00
2016,04,30,12,01,13.20
2016,04,30,12,02,13.30
2016,04,30,12,03,13.30
2016,04,30,12,04,13.30
2016,04,30,12,05,13.40
2016,04,30,12,06,13.40
2016,04,30,12,07,13.50
2016,04,30,12,08,13.60
2016,04,30,12,09,13.70
2016,04,30,12,10,13.90
2016,04,30,12,11,14.00
2016,04,30,12,12,14.10
2016,04,30,12,13,14.10
2016,04,30,12,14,14.00
2016,04,30,12,15,13.80
2016,04,30,12,16,13.70
2016,04,30,12,17,13.60
2016,04,30,12,18,13.50
2016,04,30,12,19,13.40
2016,04,30,12,20,13.50
2016,04,30,12,21,13.50
2016,04,30,12,22,13.50
2016,04,30,12,23,13.50
2016,04,30,12,24,13.50
2016,04,30,12,25,13.40
2016,04,30,12,26,13.40
2016,04,30,12,27,13.30
2016,04,30,12,28,13.30
2016,04,30,12,29,13.30
2016,04,30,12,30,13.30
2016,04,30,12,31,13.30
2016,04,30,12,32,13.40
2016,04,30,12,33,13.60
2016,04,30,12,34,13.60
2016,04,30,12,35,13.80
2016,04,30,12,36,13.80
2016,04,30,12,37,13.90
2016,04,30,12,38,13.80
2016,04,30,12,39,13.80
2016,04,30,12,40,13.70
2016,04,30,12,41,13.70
2016,04,30,12,42,13.80
2016,04,30,12,43,13.80
2016,04,30,12,44,13.90
2016,04,30,12,45,13.90
2016,04,30,12,46,14.00
2016,04,30,12,47,14.00
2016,04,30,12,48,13.90
2016,04,30,12,49,13.90
2016,04,30,12,50,14.10
2016,04,30,12,51,14.10
2016,04,30,12,52,14.20
2016,04,30,12,53,14.20
2016,04,30,12,54,14.20
2016,04,30,12,55,14.10
2016,04,30,12,56,14.00
2016,04,30,12,57,13.90
2016,04,30,12,58,13.90
2016,04,30,12,59,13.80
2016,04,30,13,00,13.80
2016,04,30,13,01,13.80
2016,04,30,13,02,13.70
2016,04,30,13,03,13.60
2016,04,30,13,04,13.60
2016,04,30,13,05,13.50
2016,04,30,13,06,13.40
2016,04,30,13,07,13.40
2016,04,30,13,08,13.40
2016,04,30,13,09,13.40
2016,04,30,13,10,13.40
2016,04,30,13,11,13.40
2016,04,30,13,12,13.40
2016,04,30,13,13,13.40
2016,04,30,13,14,13.50
2016,04,30,13,15,13.50
2016,04,30,13,16,13.50
2016,04,30,13,17,13.60
2016,04,30,13,18,13.60
2016,04,30,13,19,13.60
2016,04,30,13,20,13.70
2016,04,30,13,21,13.70
2016,04,30,13,22,13.80
2016,04,30,13,23,13.90
2016,04,30,13,24,14.00
2016,04,30,13,25,14.00
2016,04,30,13,26,14.00
2016,04,30,13,27,14.00
2016,04,30,13,28,13.90
2016,04,30,13,29,14.00
2016,04,30,13,30,14.10
2016,04,30,13,31,14.20
2016,04,30,13,32,14.30
2016,04,30,13,33,14.40
2016,04,30,13,34,14.40
2016,04,30,13,35,14.50
2016,04,30,13,36,14.50
2016,04,30,13,37,14.60
2016,04,30,13,38,14.70
2016,04,30,13,39,14.70
2016,04,30,13,40,14.80
2016,04,30,13,41,14.80
2016,04,30,13,42,14.80
2016,04,30,13,43,14.80
2016,04,30,13,44,14.90
2016,04,30,13,45,15.00
2016,04,30,13,46,15.00
2016,04,30,13,47,15.00
2016,04,30,13,48,15.00
2016,04,30,13,49,15.00
2016,04,30,13,50,15.00
2016,04,30,13,51,15.00
2016,04,30,13,52,15.10
2016,04,30,13,53,15.10
2016,04,30,13,54,15.20
2016,04,30,13,55,15.20
2016,04,30,13,56,15.20
2016,04,30,13,57,15.30
2016,04,30,13,58,15.40
2016,04,30,13,59,15.50
2016,04,30,14,00,15.50
2016,04,30,14,01,15.50
2016,04,30,14,02,15.60
2016,04,30,14,03,15.60
2016,04,30,14,04,15.60
2016,04,30,14,05,15.50
2016,04,30,14,06,15.50
2016,04,30,14,07,15.40
2016,04,30,14,08,15.50
2016,04,30,14,09,15.50
2016,04,30,14,10,15.50
2016,04,30,14,11,15.60
2016,04,30,14,12,15.60
2016,04,30,14,13,15.60
2016,04,30,14,14,15.60
2016,04,30,14,15,15.60
2016,04,30,14,16,15.60
2016,04,30,14,17,15.60
2016,04,30,14,18,15.60
2016,04,30,14,19,15.50
2016,04,30,14,20,15.60
2016,04,30,14,21,15.60
2016,04,30,14,22,15.60
2016,04,30,14,23,15.70
2016,04,30,14,24,15.70
2016,04,30,14,25,15.80
2016,04,30,14,26,15.90
2016,04,30,14,27,15.90
2016,04,30,14,28,15.90
2016,04,30,14,29,15.90
2016,04,30,14,30,15.80
2016,04,30,14,31,15.70
2016,04,30,14,32,15.60
2016,04,30,14,33,15.50
2016,04,30,14,34,15.50
2016,04,30,14,35,15.40
2016,04,30,14,36,15.40
2016,04,30,14,37,15.40
2016,04,30,14,38,15.40
2016,04,30,14,39,15.40
2016,04,30,14,40,15.30
2016,04,30,14,41,15.40
2016,04,30,14,42,15.40
2016,04,30,14,43,15.50
2016,04,30,14,44,15.70
2016,04,30,14,45,15.70
2016,04,30,14,46,15.80
2016,04,30,14,47,15.80
2016,04,30,14,48,15.80
2016,04,30,14,49,15.80
2016,04,30,14,50,15.80
2016,04,30,14,51,15.80
2016,04,30,14,52,15.70
2016,04,30,14,53,15.70
2016,04,30,14,54,15.70
2016,04,30,14,55,15.70
2016,04,30,14,56,15.70
2016,04,30,14,57,15.80
2016,04,30,14,58,15.80
2016,04,30,14,59,15.80
2016,04,30,15,00,15.80
2016,04,30,15,01,15.90
2016,04,30,15,02,16.00
2016,04,30,15,03,16.10
2016,04,30,15,04,16.10
2016,04,30,15,05,16.20
2016,04,30,15,06,16.30
2016,04,30,15,07,16.40
2016,04,30,15,08,16.40
2016,04,30,15,09,16.40
2016,04,30,15,10,16.50
2016,04,30,15,11,16.50
2016,04,30,15,12,16.40
2016,04,30,15,13,16.40
2016,04,30,15,14,16.50
2016,04,30,15,15,16.60
2016,04,30,15,16,16.60
2016,04,30,15,17,16.60
2016,04,30,15,18,16.70
2016,04,30,15,19,16.70
2016,04,30,15,20,16.80
2016,04,30,15,21,16.80
2016,04,30,15,22,16.90
2016,04,30,15,23,16.90
2016,04,30,15,24,16.90
2016,04,30,15,25,17.00
2016,04,30,15,26,17.00
2016,04,30,15,27,17.00
2016,04,30,15,28,17.00
2016,04,30,15,29,17.00
2016,04,30,15,30,17.00
2016,04,30,15,31,17.10
2016,04,30,15,32,17.10
2016,04,30,15,33,17.00
2016,04,30,15,34,17.00
2016,04,30,15,35,17.00
2016,04,30,15,36,17.10
2016,04,30,15,37,17.10
2016,04,30,15,38,17.20
2016,04,30,15,39,17.20
2016,04,30,15,40,17.20
2016,04,30,15,41,17.30
2016,04,30,15,42,17.30
2016,04,30,15,43,17.30
2016,04,30,15,44,17.30
2016,04,30,15,45,17.30
2016,04,30,15,46,17.20
2016,04,30,15,47,17.20
2016,04,30,15,48,17.20
2016,04,30,15,49,17.30
2016,04,30,15,50,17.30
2016,04,30,15,51,17.30
2016,04,30,15,52,17.30
2016,04,30,15,53,17.40
2016,04,30,15,54,17.50
2016,04,30,15,55,17.60
2016,04,30,15,56,17.70
2016,04,30,15,57,17.80
2016,04,30,15,58,17.90
2016,04,30,15,59,17.90
2016,04,30,16,00,17.90
2016,04,30,16,01,17.90
2016,04,30,16,02,17.80
2016,04,30,16,03,17.80
2016,04,30,16,04,17.80
2016,04,30,16,05,17.70
2016,04,30,16,06,17.60
2016,04,30,16,07,17.60
2016,04,30,16,08,17.60
2016,04,30,16,09,17.50
2016,04,30,16,10,17.40
2016,04,30,16,11,17.40
2016,04,30,16,12,17.40
2016,04,30,16,13,17.40
2016,04,30,16,14,17.40
2016,04,30,16,15,17.50
2016,04,30,16,16,17.60
2016,04,30,16,17,17.70
2016,04,30,16,18,17.80
2016,04,30,16,19,17.90
2016,04,30,16,20,17.80
2016,04,30,16,21,17.80
2016,04,30,16,22,17.80
2016,04,30,16,23,17.70
2016,04,30,16,24,17.60
2016,04,30,16,25,17.60
2016,04,30,16,26,17.60
2016,04,30,16,27,17.60
2016,04,30,16,28,17.70
2016,04,30,16,29,17.70
2016,04,30,16,30,17.80
2016,04,30,16,31,17.80
2016,04,30,16,32,17.90
2016,04,30,16,33,17.90
2016,04,30,16,34,18.00
2016,04,30,16,35,17.90
2016,04,30,16,36,17.80
2016,04,30,16,37,17.80
2016,04,30,16,38,17.70
2016,04,30,16,39,17.60
2016,04,30,16,40,17.50
2016,04,30,16,41,17.30
2016,04,30,16,42,17.30
2016,04,30,16,43,17.30
2016,04,30,16,44,17.40
2016,04,30,16,45,17.40
2016,04,30,16,46,17.50
2016,04,30,16,47,17.60
2016,04,30,16,48,17.60
2016,04,30,16,49,17.70
2016,04,30,16,50,17.70
2016,04,30,16,51,17.80
2016,04,30,16,52,17.70
2016,04,30,16,53,17.70
2016,04,30,16,54,17.60
2016,04,30,16,55,17.60
2016,04,30,16,56,17.50
2016,04,30,16,57,17.50
2016,04,30,16,58,17.50
2016,04,30,16,59,17.60
2016,04,30,17,00,17.60
2016,04,30,17,01,17.70
2016,04,30,17,02,17.70
2016,04,30,17,03,17.80
2016,04,30,17,04,17.80
2016,04,30,17,05,17.80
2016,04,30,17,06,17.90
2016,04,30,17,07,17.90
2016,04,30,17,08,17.90
2016,04,30,17,09,18.00
2016,04,30,17,10,18.00
2016,04,30,17,11,18.10
2016,04,30,17,12,18.10
2016,04,30,17,13,18.10
2016,04,30,17,14,18.10
2016,04,30,17,15,18.10
2016,04,30,17,16,18.10
2016,04,30,17,17,18.10
2016,04,30,17,18,18.20
2016,04,30,17,19,18.30
2016,04,30,17,20,18.30
2016,04,30,17,21,18.30
2016,04,30,17,22,18.30
2016,04,30,17,23,18.30
2016,04,30,17,24,18.40
2016,04,30,17,25,18.40
2016,04,30,17,26,18.40
2016,04,30,17,27,18.40
2016,04,30,17,28,18.40
2016,04,30,17,29,18.40
2016,04,30,17,30,18.40
2016,04,30,17,31,18.30
2016,04,30,17,32,18.30
2016,04,30,17,33,18.30
2016,04,30,17,34,18.40
2016,04,30,17,35,18.40
2016,04,30,17,36,18.40
2016,04,30,17,37,18.40